This demonstration page uses our WeatherBlox Daily Observations layout. Learn more.

Left ArrowRight Arrow

Hourly Observations for August 22, 2015

Temp ( °F °C ) Dew Point ( °F °C ) Humidity (%) Winds ( mph kmh ) Pressure ( in mb ) Visibility ( mi km ) Precip ( " mm )
12:51 am 00:51 Clear 83 28.3 57 13.9 41 41 NNW 8 13 29.74 1007 10 16 0.00 0.00
1:51 am 01:51 Clear 81 27.2 56 13.3 42 42 NW 8 13 29.75 1008 10 16 0.00 0.00
2:51 am 02:51 Clear 82 27.8 57 13.9 42 42 NNW 9 15 29.77 1008 10 16 0.00 0.00
3:51 am 03:51 Clear 81 27.2 58 14.4 45 45 NNW 10 17 29.77 1008 10 16 0.00 0.00
4:51 am 04:51 Clear 80 26.7 59 15 49 49 NW 7 11 29.78 1008 10 16 0.00 0.00
5:51 am 05:51 Sunny 78 25.6 59 15 52 52 NW 9 15 29.80 1009 10 16 0.00 0.00
6:51 am 06:51 Sunny 82 27.8 63 17.2 53 53 NW 10 17 29.83 1010 10 16 0.00 0.00
7:51 am 07:51 Sunny 85 29.4 65 18.3 51 51 NW 18 30 29.84 1011 10 16 0.00 0.00
8:51 am 08:51 Mostly Sunny 86 30 65 18.3 49 49 NW 22 35 29.85 1011 10 16 0.00 0.00
9:51 am 09:51 Sunny 89 31.7 64 17.8 43 43 NW 17 28 29.85 1011 10 16 0.00 0.00
10:51 am 10:51 Sunny 91 32.8 63 17.2 39 39 NW 14 22 29.84 1010 10 16 0.00 0.00
11:51 am 11:51 Sunny 95 35 61 16.1 32 32 W 13 20 29.80 1009 10 16 0.00 0.00
12:19 pm 12:19 Sunny with Nearby Thunderstorms 96 35.6 60 15.6 30 30 W 17 28 29.65 1004 10 16 0.00 0.00
12:34 pm 12:34 Sunny 96 35.6 60 15.6 30 30 W 15 24 29.65 1004 10 16 0.00 0.00
12:51 pm 12:51 Mostly Sunny 96 35.6 60 15.6 30 30 WNW 13 20 29.78 1008 10 16 0.00 0.00
1:17 pm 13:17 Sunny with Nearby Thunderstorms 96 35.6 60 15.6 30 30 W 10 17 29.65 1004 10 16 0.00 0.00
1:38 pm 13:38 Sunny 98 36.7 59 15 27 27 NW 10 17 29.65 1004 10 16 0.00 0.00
1:51 pm 13:51 Sunny 99 37.2 58 14.4 26 26 W 14 22 29.75 1007 10 16 0.00 0.00
2:38 pm 14:38 Sunny with Nearby Thunderstorms 95 35 58 14.4 29 29 W 16 26 29.68 1005 10 16 0.00 0.00
2:51 pm 14:51 Sunny with Nearby Thunderstorms 95 35 57 13.9 28 28 W 13 20 29.73 1007 10 16 0.00 0.00
3:30 pm 15:30 Sunny with Thunderstorms 95 35 57 13.9 28 28 SW 12 19 29.65 1004 10 16 0.00 0.00
3:44 pm 15:44 Sunny with Nearby Thunderstorms 93 33.9 57 13.9 30 30 WNW 20 31 29.65 1004 10 16 0.00 0.00
3:51 pm 15:51 Sunny with Nearby Thunderstorms 93 33.9 57 13.9 30 30 WNW 15 24 29.72 1007 10 16 0.00 0.00
4:05 pm 16:05 Sunny 93 33.9 56 13.3 29 29 WNW 16 26 29.65 1004 10 16 0.00 0.00
4:51 pm 16:51 Sunny 94 34.4 58 14.4 30 30 WNW 13 20 29.72 1006 10 16 0.00 0.00
5:51 pm 17:51 Sunny 93 33.9 60 15.6 33 33 W 16 26 29.74 1007 10 16 0.00 0.00
6:33 pm 18:33 Sunny with Nearby Thunderstorms 91 32.8 59 15 34 34 WNW 9 15 29.68 1005 10 16 0.00 0.00
6:48 pm 18:48 Partly Cloudy 91 33 57 14 32 32 N 13 20 29.68 1005 10 16 0.00 0.00
6:51 pm 18:51 Partly Cloudy 90 32.2 55 12.8 31 31 NNE 12 19 29.76 1008 10 16 0.00 0.00
7:07 pm 19:07 Partly Cloudy 88 31.1 51 10.6 28 28 NNE 17 28 29.71 1006 10 16 0.00 0.00
7:51 pm 19:51 Mostly Clear 88 31.1 48 8.9 25 25 NNE 17 28 29.78 1009 10 16 0.00 0.00
8:38 pm 20:38 Mostly Cloudy with Nearby Thunderstorms 88 31.1 45 7.2 22 22 WNW 13 20 29.74 1007 10 16 0.00 0.00
8:51 pm 20:51 Mostly Cloudy 84 28.9 51 10.6 32 32 W 20 31 29.83 1010 10 16 0.00 0.00
9:51 pm 21:51 Clear 81 27.2 53 11.7 38 38 W 17 28 29.83 1010 10 16 0.00 0.00
10:51 pm 22:51 Clear 81 27.2 53 11.7 38 38 E 8 13 29.84 1010 10 16 0.00 0.00
11:51 pm 23:51 Clear 80 26.7 53 11.7 39 39 SSW 3 6 29.85 1011 10 16 0.00 0.00

Powered by AerisWeather